When you browse on this site, cookies collect data to enhance your experience and personalize the content and advertising you see.
Visit our Privacy Policy to learn more. By continuing to use the site, you agree to this use of cookies and data.
  • In Romania
  • List of Countries
  • For 7 days
  • Water Temperature
  • Weather Map
  • Weather Widgets
  • user-avatar
    Login

    Hourly Weather Karbala

    Today, 28 February, Friday

    Time Temperature Precipitation Wind Pressure Humidity
    00:00 +17°C° 0 mm 2 mps 760 mmHg 47%
    01:00 +16°C° 0 mm 2 mps 760 mmHg 48%
    02:00 +16°C° 0 mm 2 mps 759 mmHg 50%
    03:00 +16°C° 0 mm 2 mps 759 mmHg 52%
    04:00 +15°C° 0 mm 2 mps 759 mmHg 54%
    05:00 +15°C° 0 mm 2 mps 759 mmHg 56%
    06:00 +15°C° 0 mm 1 mps 759 mmHg 57%
    07:00 +16°C° 0 mm 1 mps 760 mmHg 54%
    08:00 +18°C° 0 mm 1 mps 760 mmHg 51%
    09:00 +19°C° 0 mm 1 mps 760 mmHg 48%
    10:00 +20°C° 0 mm 1 mps 760 mmHg 44%
    11:00 +21°C° 0 mm 1 mps 760 mmHg 40%
    12:00 +21°C° 0 mm 1 mps 759 mmHg 37%
    13:00 +22°C° 0 mm 1 mps 759 mmHg 35%
    14:00 +21°C° 0 mm 2 mps 758 mmHg 32%
    15:00 +23°C° 0 mm 2 mps 758 mmHg 32%
    16:00 +22°C° 0 mm 1 mps 758 mmHg 33%
    17:00 +22°C° 0 mm 1 mps 758 mmHg 35%
    18:00 +21°C° 0 mm 1 mps 758 mmHg 37%
    19:00 +20°C° 0 mm 1 mps 758 mmHg 39%
    20:00 +20°C° 0 mm 1 mps 757 mmHg 41%
    21:00 +17°C° 0 mm 0 mps 757 mmHg 42%
    22:00 +16°C° 0 mm 0 mps 757 mmHg 43%
    23:00 +16°C° 0 mm 0 mps 757 mmHg 44%

    Tomorrow, 29 February, Saturday

    Time Temperature Precipitation Wind Pressure Humidity
    00:00 +16°C° 0 mm 0 mps 757 mmHg 45%
    01:00 +15°C° 0 mm 0 mps 756 mmHg 45%
    02:00 +16°C° 0 mm 1 mps 756 mmHg 44%
    03:00 +16°C° 0 mm 1 mps 755 mmHg 44%
    04:00 +16°C° 0 mm 1 mps 756 mmHg 46%
    05:00 +15°C° 0 mm 2 mps 756 mmHg 48%
    06:00 +15°C° 0 mm 2 mps 756 mmHg 50%
    07:00 +16°C° 0 mm 2 mps 756 mmHg 47%
    08:00 +18°C° 0 mm 2 mps 756 mmHg 44%
    09:00 +19°C° 0 mm 2 mps 756 mmHg 41%
    10:00 +20°C° 0 mm 2 mps 755 mmHg 36%
    11:00 +21°C° 0 mm 3 mps 755 mmHg 32%
    12:00 +24°C° 0 mm 3 mps 755 mmHg 27%
    13:00 +24°C° 0 mm 3 mps 754 mmHg 26%
    14:00 +25°C° 0 mm 2 mps 753 mmHg 24%
    15:00 +25°C° 0 mm 2 mps 753 mmHg 23%
    16:00 +25°C° 0 mm 2 mps 753 mmHg 25%
    17:00 +24°C° 0 mm 1 mps 753 mmHg 27%
    18:00 +23°C° 0 mm 1 mps 753 mmHg 30%
    19:00 +22°C° 0 mm 1 mps 753 mmHg 31%
    20:00 +22°C° 0 mm 1 mps 753 mmHg 33%
    21:00 +21°C° 0 mm 1 mps 753 mmHg 35%
    22:00 +20°C° 0 mm 2 mps 753 mmHg 36%
    23:00 +19°C° 0 mm 2 mps 753 mmHg 36%

    Day after tomorrow, 1 March, Sunday

    Time Temperature Precipitation Wind Pressure Humidity
    00:00 +19°C° 0 mm 3 mps 753 mmHg 36%
    01:00 +19°C° 0 mm 3 mps 753 mmHg 37%
    02:00 +18°C° 0 mm 3 mps 753 mmHg 39%
    03:00 +18°C° 0 mm 3 mps 753 mmHg 40%
    04:00 +17°C° 0 mm 3 mps 753 mmHg 41%
    05:00 +17°C° 0 mm 3 mps 753 mmHg 43%
    06:00 +17°C° 0 mm 3 mps 753 mmHg 45%
    07:00 +17°C° 0 mm 4 mps 753 mmHg 45%
    08:00 +17°C° 0 mm 5 mps 754 mmHg 45%
    09:00 +17°C° 0 mm 7 mps 754 mmHg 45%
    10:00 +18°C° 0 mm 7 mps 754 mmHg 43%
    11:00 +18°C° 0 mm 7 mps 754 mmHg 42%
    12:00 +20°C° 0 mm 7 mps 754 mmHg 41%
    13:00 +20°C° 0 mm 7 mps 753 mmHg 39%
    14:00 +20°C° 0 mm 6 mps 753 mmHg 36%
    15:00 +20°C° 0 mm 6 mps 753 mmHg 34%
    16:00 +20°C° 0 mm 6 mps 753 mmHg 37%
    17:00 +19°C° 0 mm 6 mps 754 mmHg 39%
    18:00 +17°C° 0 mm 7 mps 754 mmHg 42%
    19:00 +16°C° 0 mm 6 mps 755 mmHg 43%
    20:00 +16°C° 0 mm 5 mps 755 mmHg 43%
    21:00 +15°C° 0 mm 4 mps 756 mmHg 44%
    22:00 +15°C° 0 mm 4 mps 756 mmHg 47%
    23:00 +15°C° 0 mm 5 mps 756 mmHg 49%

    2 March, Monday

    Time Temperature Precipitation Wind Pressure Humidity
    00:00 +14°C° 0 mm 5 mps 756 mmHg 52%
    01:00 +14°C° 0 mm 5 mps 756 mmHg 54%
    02:00 +14°C° 0 mm 6 mps 756 mmHg 57%
    03:00 +14°C° 0 mm 6 mps 756 mmHg 59%
    04:00 +13°C° 0 mm 6 mps 757 mmHg 62%
    05:00 +13°C° 0 mm 6 mps 757 mmHg 66%
    06:00 +12°C° 0 mm 7 mps 758 mmHg 69%
    07:00 +13°C° 0 mm 6 mps 759 mmHg 67%
    08:00 +14°C° 0 mm 6 mps 759 mmHg 66%
    09:00 +14°C° 0 mm 6 mps 760 mmHg 64%
    10:00 +15°C° 0 mm 5 mps 760 mmHg 59%
    11:00 +16°C° 0 mm 5 mps 760 mmHg 53%
    12:00 +17°C° 0 mm 5 mps 760 mmHg 48%
    13:00 +17°C° 0 mm 5 mps 760 mmHg 46%
    14:00 +19°C° 0 mm 5 mps 759 mmHg 44%
    15:00 +19°C° 0 mm 5 mps 759 mmHg 42%
    16:00 +19°C° 0 mm 4 mps 759 mmHg 43%
    17:00 +18°C° 0 mm 3 mps 759 mmHg 45%
    18:00 +18°C° 0 mm 3 mps 760 mmHg 47%
    19:00 +18°C° 0 mm 2 mps 760 mmHg 49%
    20:00 +17°C° 0 mm 2 mps 760 mmHg 50%
    21:00 +17°C° 0 mm 2 mps 761 mmHg 52%
    22:00 +16°C° 0 mm 1 mps 761 mmHg 54%
    23:00 +16°C° 0 mm 1 mps 761 mmHg 56%

    3 March, Tuesday

    Time Temperature Precipitation Wind Pressure Humidity
    00:00 +15°C° 0 mm 1 mps 761 mmHg 58%
    01:00 +15°C° 0 mm 1 mps 761 mmHg 58%
    02:00 +15°C° 0 mm 1 mps 761 mmHg 58%
    03:00 +14°C° 0 mm 1 mps 761 mmHg 58%
    04:00 +14°C° 0 mm 1 mps 761 mmHg 57%
    05:00 +14°C° 0 mm 2 mps 761 mmHg 56%
    06:00 +14°C° 0 mm 2 mps 762 mmHg 55%
    07:00 +15°C° 0 mm 2 mps 762 mmHg 51%
    08:00 +16°C° 0 mm 2 mps 763 mmHg 47%
    09:00 +17°C° 0 mm 2 mps 763 mmHg 43%
    10:00 +18°C° 0 mm 3 mps 763 mmHg 41%
    11:00 +19°C° 0 mm 3 mps 762 mmHg 38%
    12:00 +20°C° 0 mm 3 mps 762 mmHg 35%
    13:00 +20°C° 0 mm 4 mps 762 mmHg 34%
    14:00 +21°C° 0 mm 4 mps 761 mmHg 33%
    15:00 +21°C° 0 mm 5 mps 761 mmHg 33%
    16:00 +21°C° 0 mm 5 mps 761 mmHg 34%
    17:00 +20°C° 0 mm 5 mps 761 mmHg 35%
    18:00 +19°C° 0 mm 5 mps 761 mmHg 36%
    19:00 +19°C° 0 mm 4 mps 761 mmHg 37%
    20:00 +18°C° 0 mm 4 mps 761 mmHg 38%
    21:00 +18°C° 0 mm 3 mps 762 mmHg 40%
    22:00 +17°C° 0 mm 3 mps 762 mmHg 40%
    23:00 +17°C° 0 mm 3 mps 761 mmHg 41%

    4 March, Wednesday

    Time Temperature Precipitation Wind Pressure Humidity
    00:00 +17°C° 0 mm 3 mps 761 mmHg 41%
    01:00 +16°C° 0 mm 3 mps 761 mmHg 42%
    02:00 +16°C° 0 mm 3 mps 761 mmHg 43%
    03:00 +14°C° 0 mm 4 mps 760 mmHg 44%
    04:00 +14°C° 0 mm 4 mps 760 mmHg 47%
    05:00 +14°C° 0 mm 4 mps 760 mmHg 50%
    06:00 +13°C° 0 mm 4 mps 760 mmHg 52%
    07:00 +14°C° 0 mm 4 mps 761 mmHg 50%
    08:00 +15°C° 0 mm 5 mps 761 mmHg 47%
    09:00 +16°C° 0 mm 5 mps 761 mmHg 44%
    10:00 +19°C° 0 mm 6 mps 761 mmHg 40%
    11:00 +20°C° 0 mm 6 mps 760 mmHg 36%
    12:00 +21°C° 0 mm 6 mps 760 mmHg 32%
    13:00 +21°C° 0 mm 6 mps 759 mmHg 31%
    14:00 +22°C° 0 mm 6 mps 759 mmHg 29%
    15:00 +22°C° 0 mm 7 mps 758 mmHg 27%
    16:00 +21°C° 0 mm 6 mps 758 mmHg 29%
    17:00 +21°C° 0 mm 5 mps 758 mmHg 31%
    18:00 +20°C° 0 mm 4 mps 758 mmHg 32%
    19:00 +19°C° 0 mm 4 mps 758 mmHg 33%
    20:00 +19°C° 0 mm 4 mps 759 mmHg 34%
    21:00 +18°C° 0 mm 4 mps 759 mmHg 35%
    22:00 +18°C° 0 mm 4 mps 758 mmHg 37%
    23:00 +17°C° 0 mm 4 mps 758 mmHg 40%
    Show more